Regional Weather Roundup
Issued by NWS Raleigh/Durham, NC

Home | Current Version | Previous Version | Text Only | Print | Product List | Glossary On
Versions: 1 2 3 4 5 6 7 8 9 10 11 12 13 14 15 16 17 18 19 20 21 22 23 24 25 26 27 28 29 30 31 32 33 34 35 36 37 38 39 40 41 42 43 44 45 46 47 48 49 50
000
ASUS42 KRAH 291810
RWRRAH
NORTH CAROLINA WEATHER ROUNDUP
NATIONAL WEATHER SERVICE RALEIGH NC
200 PM EDT TUE JUL 29 2014

NOTE: "FAIR" INDICATES FEW OR NO CLOUDS BELOW 12,000 FEET WITH NO
SIGNIFICANT WEATHER AND/OR OBSTRUCTIONS TO VISIBILITY.

NCZ001-053-055-056-065-067-291900-
WESTERN NORTH CAROLINA

CITY           SKY/WX    TMP DP  RH WIND       PRES   REMARKS
ASHEVILLE      SUNNY     74  53  48 N9        30.03F
JEFFERSON      MOSUNNY   70  44  38 NW10      30.06S
MORGANTON      MOSUNNY   78  54  43 SW6       30.03F
HICKORY        PTSUNNY   77  53  43 S5        29.98F
RUTHERFORDTON  MOSUNNY   77  56  48 CALM      29.99F
MOUNT AIRY     CLOUDY    78  56  46 SW3       29.97F
BOONE          SUNNY     69  39  33 W8G16     30.06F
$$

NCZ021-022-025-041-071-084-088-291900-
CENTRAL NORTH CAROLINA

CITY           SKY/WX    TMP DP  RH WIND       PRES   REMARKS
CHARLOTTE      MOSUNNY   78  54  43 CALM      29.97F
GREENSBORO     MOSUNNY   78  55  44 VRB3      29.96F
WINSTON-SALEM  PTSUNNY   77  54  44 E5        29.98F
RALEIGH-DURHAM MOSUNNY   78  57  48 CALM      29.95F
FORT BRAGG     MOSUNNY   82  58  45 VRB2      29.93F
FAYETTEVILLE   MOSUNNY   86  58  38 N8        29.92F
BURLINGTON     PTSUNNY   78  54  43 SE6       29.96F
LAURINBURG     SUNNY     83  57  41 SW5       29.93F
$$

NCZ011-015-027-028-043-044-047-080-103-291900-
NORTHEASTERN NORTH CAROLINA

CITY           SKY/WX    TMP DP  RH WIND       PRES   REMARKS
ROCKY MT-WILSO SUNNY     81  54  39 N6        29.94F
GREENVILLE     SUNNY     81  61  50 NE8       29.95F
WASHINGTON     SUNNY     79  62  56 N5        29.93S
ELIZABETH CITY PTSUNNY   79  63  57 N6        29.93R
MANTEO         NOT AVBL
CAPE HATTERAS  PTSUNNY   82  67  60 NE9       29.92S
$$

NCZ078-087-090-091-093-098-101-291900-
SOUTHEASTERN NORTH CAROLINA

CITY           SKY/WX    TMP DP  RH WIND       PRES   REMARKS
LUMBERTON      SUNNY     84  62  47 N7        29.92F
GOLDSBORO      SUNNY     80  64  56 N7        29.91F
KINSTON        SUNNY     81  61  50 N7        29.94S
KENANSVILLE    SUNNY     81  58  44 W5        29.93F
NEW BERN       MOSUNNY   85  63  47 VRB3      29.92F
CHERRY POINT   MOSUNNY   83  67  58 NE8       29.92S
BEAUFORT       MOSUNNY   83  68  60 N9        29.91S
JACKSONVILLE   MOSUNNY   83  64  52 NW7       29.91S
WILMINGTON     PTSUNNY   85  65  51 NE5       29.90F
$$



USA.gov is the U.S. government's official web portal to all federal, state and local government web resources and services.